Погода Рудная Пристань

Погода Рудная Пристань : погода сейчас, прогноз погоды и архив. Всё, что Вы хотите узнать о погоде Рудная Пристань!

Хотите узнать прогноз погоды Рудная Пристань? Тогда Вам сюда: Погода Рудная Пристань

Поиск расширенной информации на нашем сайте:

Другие новости

Новости СМИ2

Главная страница сайта

Новости сайта

02.10.2013

Напоминаем, что на нашем новом сайте вы можете получить высокодетализированные прогнозы погоды по пунктам России, СНГ и мира (включающие важные для авиации метеовеличины, такие как направление и скорость ветра, видимость, явления погоды, количество и форма облачности, нижняя и верхняя граница облачности), а также ознакомиться с разнообразными материалами по авиационной метеорологии и подборкой полезных ссылок на эту тему.

Сайт Метеоцентр.Азия посвящён разработке технологий оптимизации авиаметеорологического обслуживания, включая проектирование и перспективное создание нескольких автоматизированных авиаметеорологических систем:
- система выпуска высокодетальных прогностических карт явлений погоды для нижнего воздушного пространства по России и ближнему зарубежью;
- система верификации прогнозов TAF (выпускаемых синоптиками официальных АМСГ РФ и ближнего зарубежья) и AUTOTAF (выпускаемых сайтом Метеоцентр.Азия) - выявление ошибок, онлайн-сопоставление с фактической погодой METAR, автоматическое внесение коррективов в прогнозы при резком отклонении фактической погоды от прогноза, подсчёт оправдываемости прогнозов по элементам и в целом;
- система обработки, анализа и отображения авиаметеорологической информации для применения провайдерами метеорологической информации.

Рекомендуем: Нетбук в СВАО ремонт компьютеров компьютерная помощь одинцово VIP сервис

Погода Рудная Пристань - сегодня

Время (UTC), дата Ветер
(°,м/с) 
Видим.   Явления Облачность Т
(°С)
Тd
(°С)
f(%) Тe
(°С)
Pmin
(гПа)
dP
(гПа)
Po
(мм)
O2
(г/м3)
Тmin Tmax R s Состояние
почвы
00 24.02.17 270 (З) 4{15}  40000 м    ясно 
-7 -22.4 28 -11  1011.5  2.2  755  314  -9.1         
03 24.02.17 270 (З) 2{15}  20000 м    8/3 600 м средняя, верхняя 
[Sc|Ac lent|Ci fib]
-3.1 -21.1 23 -4  1011.2  -0.3  755  309           
06 24.02.17 240 (ЮЗ) 3{11}  20000 м    8/3 600 м верхняя 
[Sc|Ci]
-2.3 -19.5 25 -4  1010.3  -0.8  755  308           
09 24.02.17 290 (З) 20000 м    4/3 600 м верхняя 
[Sc|Ci sp]
-3.4 -19.6 27 -5  1010.7  0.4  755  309    -1.5       
12 24.02.17 тихо ()   20000 м    ясно 
-6.7 -16.6 45 -7  1012.1  1.3  756  314           
15 24.02.17 270 (З) 20000 м    ясно 
-10.5 -15.8 65 -12  1011.6  -0.6  755  318           
18 24.02.17 280 (З) 20000 м    ясно 
-13.6 -17 75 -16  1010.5  -1.2  755  321           
21 24.02.17 270 (З) 20000 м    ясно 
-10.6 -17.4 57 -12  1010.2  -0.3  754  318  -13.8      мокрый или
старый снег
10-40% 
00 25.02.17 260 (З) 20000 м    ясно 
-4.1 -14.9 43 -7  1010.3  0.3  755  310  -14         
06 25.02.17 260 (З) 7-13{15}  20000 м    4/4 600 м кучево-дожд. 
[Cb cap]
-2.1 -19.8 24 -6  1009.1  -0.2  754  307           
09 25.02.17 270 (З) 4{16}  20000 м    3/0 верхняя 
[Ci sp]
-5.6 -24.8 20 -9  1011.5  2.3  755  312    -1.4       
12 25.02.17 300 (СЗ) 20000 м    ясно 
-8.9 -23.7 29 -9  1014.6  758  317           
15 25.02.17 280 (З) 20000 м    ясно 
-11.8 -21.3 45 -12  1015.4  0.7  758  321           
18 25.02.17 260 (З) 20000 м    ясно 
-15.5 -20.5 65 -18  1016.2  0.7  759  326           
21 25.02.17 260 (З) 20000 м    ясно 
-16.7 -20.4 73 -19  1018.1  1.9  760  328  -17.1         
00 26.02.17 260 (З) 3-10{10}  20000 м    1/1 600 м 
[Sc]
-8.4 -23.2 29 -11  1020  2.1  762  318  -17.2         
03 26.02.17 290 (З) 3-10{11}  20000 м    ясно 
-6 -26.3 18 -9  1019.7  -0.3  761  315           
06 26.02.17 250 (З) 3{13}  20000 м    ясно 
-3 -26.9 14 -5  1019.9  0.3  762  312           
09 26.02.17 230 (ЮЗ) 20000 м    1/1 600 м 
[Sc]
-5.4 -27.8 15 -8  1022.4  2.5  764  316    -2.7       
12 26.02.17 260 (З) 3{11}  20000 м    ясно 
-7.7 -27.1 19 -10  1025.4  2.9  766  319           
15 26.02.17 260 (З) 20000 м    ясно 
-9.5 -26.5 24 -11  1026.6  1.1  767  322           
18 26.02.17 260 (З) 20000 м    ясно 
-14.9 -24.5 44 -17  1027  0.3  767  329           
21 26.02.17 260 (З) 20000 м    ясно 
-15.5 -24.1 48 -18  1027.7  0.7  767  329  -15.9         
00 27.02.17 280 (З) 20000 м    ясно 
-7.3 -21.3 32 -10  1028.1  0.5  768  319  -16.4         
03 27.02.17 150 (ЮВ) 20000 м    ясно 
-2.1 -15.2 36 -4  1026.4  -1.5  767  313           
Время (UTC), дата Ветер
(°,м/с) 
Видим.   Явления Облачность Т
(°С)
Тd
(°С)
f(%) Тe
(°С)
Pmin
(гПа)
dP
(гПа)
Po
(мм)
O2
(г/м3)
Тmin Tmax R s Состояние
почвы

Для получения пояснительной информации подведите курсор к названию столбца.

ПОГОДА Рудная Пристань - архив

Всё, что Вы хотите узнать о погоде Рудная Пристань - удобно и подробно!

Выберите нужную дату (начиная с 1 января 2015* года) и нажмите кнопку "Найти".
Будут отображены архивные сводки погоды по пункту Рудная Пристань, начиная с указанной даты.


Отображать данные в формате CSV (для использования в таблицах Excel)


Внимание! Наш архив погоды предназначен исключительно для личного некоммерческого использования в познавательных целях. Если Вам необходимы официальные справки о состоянии погоды (для производственных, юридических, коммерческих и т.п. целей), обращайтесь в органы Росгидромета.

*Примечание: данная дата относится к архиву по метеостанциям СССР (Россия, СНГ, Балтия).
Архив по метеостанциям Зарубежной Европы и Азии (кроме Китая) хранится 10 дней, по другим регионам земного шара (Китай, Африка, Америка, Австралия, Океания) - 1 день.

Рудная Пристань - район местоположения метеостанции


Название, широта, долгота, высота метеостанции:
Рудная Пристань 44.4°ш. 135.9°д. 34 м над ур. моря [Российская Федерация]

Дополнительная информация

В oтличие oт бoльшинства пoгoдных сайтoв мы публикуем пoдрoбную метеoинфoрмацию в детальнoм прoфессиoнальнoм фoрмате.

Характеристики температуры и влажнoсти вoздуха измеряются на высoте 2 м в тени вдали oт зданий и деревьев.
Скoрoсть ветра измеряется на высoте 10 м (на урoвне рoста челoвека скoрoсть ветра ниже в 1.5-2 раза). Если метеoстанция нахoдится в гoрoде или в лесу, тo скoрoсть ветра занижена на 2-4 м/с пo сравнению с oткрытым местoм. Скoрoсть ветра над акватoриями крупных рек и oзёр, а также на вершинах хoлмoв на 2-5 м/с выше, чем в oбычных услoвиях.
Атмoсфернoе давление в разных тoчках местнoсти мoжет значительнo oтличаться oт давления на метеoстанции, в зависимoсти oт услoвий рельефа (при пoдъёме на 10 м давление пoнижается примернo на 1 мм рт.ст.).